| time (UTC) | temp C | wind direction | speed KPH | gust KPH | rain 1hr cm | rain 24hr cm | rain mn cm | humidity % | barometer mb |
| 20260507051547 | 16 | 264 | 0.0 | 3.2 | 0.00 | 0.23 | 0.00 | 87 | 1013.0 |
| 20260507050046 | 16 | 9 | 0.0 | 1.6 | 0.00 | 0.23 | 0.00 | 87 | 1013.2 |
| 20260507044549 | 16 | 285 | 0.0 | 1.6 | 0.00 | 0.23 | 0.23 | 86 | 1013.2 |
| 20260507043045 | 16 | 119 | 0.0 | 3.2 | 0.00 | 0.23 | 0.23 | 86 | 1013.1 |
| 20260507041545 | 16 | 59 | 0.0 | 3.2 | 0.00 | 0.23 | 0.23 | 87 | 1013.1 |
| 20260507040044 | 16 | 296 | 1.6 | 6.4 | 0.00 | 0.23 | 0.23 | 87 | 1012.9 |
| 20260507034551 | 16 | 303 | 0.0 | 6.4 | 0.00 | 0.23 | 0.23 | 88 | 1013.2 |
| 20260507033039 | 16 | 79 | 0.0 | 4.8 | 0.00 | 0.23 | 0.23 | 88 | 1012.6 |
| 20260507031541 | 16 | 297 | 0.0 | 6.4 | 0.00 | 0.23 | 0.23 | 88 | 1012.5 |
| 20260507030047 | 16 | 118 | 1.6 | 4.8 | 0.00 | 0.23 | 0.23 | 88 | 1012.7 |
| 20260507024541 | 16 | 317 | 0.0 | 6.4 | 0.00 | 0.23 | 0.23 | 88 | 1012.3 |
| 20260507023034 | 16 | 87 | 0.0 | 8.0 | 0.00 | 0.23 | 0.23 | 87 | 1012.5 |
| 20260507021531 | 16 | 57 | 0.0 | 6.4 | 0.00 | 0.23 | 0.23 | 86 | 1012.0 |
| 20260507020030 | 16 | 89 | 0.0 | 4.8 | 0.00 | 0.23 | 0.23 | 86 | 1011.9 |
| 20260507014543 | 16 | 265 | 1.6 | 6.4 | 0.00 | 0.23 | 0.23 | 87 | 1012.0 |
| 20260507013028 | 16 | 83 | 0.0 | 3.2 | 0.00 | 0.23 | 0.23 | 86 | 1011.4 |
| 20260507011528 | 16 | 324 | 0.0 | 1.6 | 0.00 | 0.23 | 0.23 | 86 | 1011.1 |
| 20260507010023 | 16 | 34 | 0.0 | 6.4 | 0.00 | 0.23 | 0.23 | 85 | 1010.9 |
| 20260507004523 | 16 | 285 | 1.6 | 8.0 | 0.00 | 0.23 | 0.23 | 85 | 1010.7 |
| 20260507003019 | 16 | 301 | 0.0 | 9.7 | 0.00 | 0.23 | 0.23 | 85 | 1010.7 |
| 20260507001524 | 17 | 336 | 0.0 | 6.4 | 0.00 | 0.23 | 0.23 | 85 | 1010.4 |
| 20260507000022 | 17 | 334 | 1.6 | 8.0 | 0.00 | 0.23 | 0.23 | 84 | 1010.3 |
| 20260506234515 | 17 | 7 | 1.6 | 9.7 | 0.00 | 0.23 | 0.23 | 84 | 1009.9 |
| 20260506233011 | 17 | 324 | 3.2 | 11.3 | 0.00 | 0.23 | 0.23 | 83 | 1010.0 |
| 20260506231507 | 18 | 7 | 3.2 | 14.5 | 0.00 | 0.23 | 0.23 | 81 | 1010.0 |
| 20260506230004 | 18 | 302 | 1.6 | 8.0 | 0.00 | 0.23 | 0.23 | 81 | 1009.7 |
| 20260506224503 | 18 | 291 | 3.2 | 11.3 | 0.00 | 0.23 | 0.23 | 79 | 1009.4 |
| 20260506223001 | 19 | 319 | 1.6 | 16.1 | 0.00 | 0.23 | 0.23 | 79 | 1009.4 |
| 20260506221600 | 19 | 35 | 6.4 | 22.5 | 0.00 | 0.23 | 0.23 | 78 | 1009.4 |
| 20260506220100 | 19 | 347 | 4.8 | 19.3 | 0.00 | 0.23 | 0.23 | 78 | 1009.1 |
| 20260506214557 | 20 | 336 | 3.2 | 12.9 | 0.00 | 0.23 | 0.23 | 77 | 1009.1 |
| 20260506213113 | 20 | 353 | 1.6 | 11.3 | 0.00 | 0.23 | 0.23 | 78 | 1009.0 |
| 20260506211556 | 21 | 335 | 4.8 | 22.5 | 0.00 | 0.23 | 0.23 | 76 | 1009.3 |
| 20260506210057 | 23 | 347 | 6.4 | 19.3 | 0.00 | 0.23 | 0.23 | 69 | 1008.9 |
| 20260506204554 | 25 | 297 | 4.8 | 14.5 | 0.00 | 0.23 | 0.23 | 70 | 1008.7 |
| 20260506203053 | 25 | 308 | 9.7 | 20.9 | 0.00 | 0.23 | 0.23 | 68 | 1008.7 |
| 20260506201552 | 25 | 266 | 3.2 | 19.3 | 0.00 | 0.23 | 0.23 | 74 | 1008.7 |
| 20260506200051 | 26 | 258 | 3.2 | 12.9 | 0.00 | 0.23 | 0.23 | 73 | 1008.6 |
| 20260506194555 | 25 | 322 | 3.2 | 17.7 | 0.00 | 0.23 | 0.23 | 76 | 1008.7 |
| 20260506193057 | 25 | 287 | 4.8 | 17.7 | 0.00 | 0.23 | 0.23 | 76 | 1008.7 |
| 20260506191548 | 25 | 343 | 6.4 | 14.5 | 0.00 | 0.23 | 0.23 | 77 | 1008.7 |
| 20260506190050 | 26 | 267 | 3.2 | 8.0 | 0.00 | 0.23 | 0.23 | 75 | 1008.6 |
| 20260506184544 | 26 | 224 | 1.6 | 8.0 | 0.00 | 0.23 | 0.23 | 79 | 1008.8 |
| 20260506183042 | 25 | 265 | 3.2 | 8.0 | 0.00 | 0.23 | 0.23 | 85 | 1009.1 |
| 20260506181539 | 23 | 355 | 1.6 | 8.0 | 0.00 | 0.23 | 0.23 | 85 | 1009.3 |
| 20260506180048 | 23 | 282 | 4.8 | 8.0 | 0.00 | 0.23 | 0.23 | 90 | 1009.3 |
| 20260506174542 | 22 | 196 | 0.0 | 4.8 | 0.00 | 0.23 | 0.23 | 92 | 1009.4 |
| 20260506173039 | 22 | 258 | 3.2 | 8.0 | 0.00 | 0.23 | 0.23 | 91 | 1009.6 |
| 20260506171537 | 21 | 242 | 0.0 | 6.4 | 0.00 | 0.23 | 0.23 | 94 | 1009.3 |
| 20260506170038 | 21 | 262 | 1.6 | 4.8 | 0.15 | 0.23 | 0.23 | 96 | 1009.3 |
| 20260506164536 | 20 | 120 | 1.6 | 4.8 | 0.23 | 0.23 | 0.23 | 94 | 1009.5 |
| 20260506163055 | 19 | 321 | 1.6 | 9.7 | 0.23 | 0.23 | 0.23 | 93 | 1009.3 |
| 20260506161534 | 20 | 286 | 0.0 | 11.3 | 0.23 | 0.23 | 0.23 | 91 | 1009.4 |
| 20260506160030 | 21 | 351 | 1.6 | 11.3 | 0.08 | 0.08 | 0.08 | 83 | 1009.5 |
| 20260506154526 | 25 | 42 | 0.0 | 8.0 | 0.00 | 0.00 | 0.00 | 85 | 1008.9 |
| 20260506153024 | 25 | 109 | 0.0 | 8.0 | 0.00 | 0.00 | 0.00 | 85 | 1008.8 |
| 20260506151521 | 23 | 114 | 0.0 | 6.4 | 0.00 | 0.00 | 0.00 | 89 | 1008.6 |
| 20260506150022 | 23 | 68 | 1.6 | 4.8 | 0.00 | 0.00 | 0.00 | 91 | 1008.4 |
| 20260506144523 | 23 | 80 | 1.6 | 6.4 | 0.00 | 0.00 | 0.00 | 93 | 1008.2 |
| 20260506143019 | 22 | 81 | 1.6 | 9.7 | 0.00 | 0.00 | 0.00 | 94 | 1008.3 |
| 20260506141517 | 22 | 83 | 1.6 | 4.8 | 0.00 | 0.00 | 0.00 | 94 | 1008.2 |
| 20260506140015 | 22 | 59 | 1.6 | 6.4 | 0.00 | 0.00 | 0.00 | 95 | 1008.2 |
| 20260506134513 | 22 | 81 | 0.0 | 8.0 | 0.00 | 0.00 | 0.00 | 95 | 1007.9 |
| 20260506133011 | 22 | 100 | 1.6 | 6.4 | 0.00 | 0.00 | 0.00 | 95 | 1007.0 |
| 20260506131513 | 22 | 88 | 0.0 | 6.4 | 0.00 | 0.00 | 0.00 | 96 | 1006.9 |
| 20260506130007 | 22 | 94 | 0.0 | 4.8 | 0.00 | 0.00 | 0.00 | 96 | 1006.8 |
| 20260506124506 | 22 | 82 | 0.0 | 3.2 | 0.00 | 0.00 | 0.00 | 95 | 1006.6 |
| 20260506123006 | 22 | 94 | 0.0 | 4.8 | 0.00 | 0.00 | 0.00 | 95 | 1006.5 |
| 20260506121505 | 22 | 101 | 1.6 | 4.8 | 0.00 | 0.00 | 0.00 | 95 | 1006.4 |
| 20260506120006 | 22 | 155 | 0.0 | 1.6 | 0.00 | 0.00 | 0.00 | 95 | 1006.4 |
| 20260506114504 | 22 | 155 | 0.0 | 0.0 | 0.00 | 0.00 | 0.00 | 95 | 1006.5 |
| 20260506113003 | 22 | 82 | 0.0 | 4.8 | 0.00 | 0.00 | 0.00 | 95 | 1006.3 |
| 20260506111502 | 22 | 64 | 3.2 | 4.8 | 0.00 | 0.00 | 0.00 | 95 | 1006.5 |
| 20260506110001 | 22 | 104 | 0.0 | 3.2 | 0.00 | 0.00 | 0.00 | 95 | 1006.7 |
| 20260506104603 | 22 | 125 | 0.0 | 3.2 | 0.00 | 0.00 | 0.00 | 95 | 1006.7 |
| 20260506103100 | 22 | 195 | 1.6 | 4.8 | 0.00 | 0.00 | 0.00 | 95 | 1006.7 |
| 20260506101605 | 22 | 111 | 0.0 | 8.0 | 0.00 | 0.00 | 0.00 | 95 | 1006.6 |
| 20260506100058 | 22 | 135 | 1.6 | 8.0 | 0.00 | 0.00 | 0.00 | 95 | 1006.4 |
| 20260506094621 | 22 | 126 | 1.6 | 6.4 | 0.00 | 0.00 | 0.00 | 94 | 1006.5 |
| 20260506093056 | 22 | 98 | 1.6 | 9.7 | 0.00 | 0.00 | 0.00 | 94 | 1006.4 |
| 20260506091553 | 22 | 126 | 0.0 | 4.8 | 0.00 | 0.00 | 0.00 | 94 | 1006.3 |
| 20260506090051 | 22 | 169 | 0.0 | 8.0 | 0.00 | 0.00 | 0.00 | 93 | 1006.1 |
| 20260506084550 | 22 | 172 | 3.2 | 9.7 | 0.00 | 0.00 | 0.00 | 92 | 1006.0 |
| 20260506083048 | 22 | 177 | 4.8 | 11.3 | 0.00 | 0.00 | 0.00 | 92 | 1006.0 |
| 20260506081546 | 22 | 192 | 4.8 | 12.9 | 0.00 | 0.00 | 0.00 | 91 | 1006.0 |
| 20260506073045 | 23 | 114 | 1.6 | 8.0 | 0.00 | 0.00 | 0.00 | 90 | 1006.2 |
| 20260506071540 | 23 | 142 | 3.2 | 8.0 | 0.00 | 0.00 | 0.00 | 89 | 1006.4 |
| 20260506061536 | 23 | 152 | 1.6 | 11.3 | 0.00 | 0.00 | 0.00 | 89 | 1006.8 |